| time (UTC) | temp F | wind direction | speed knots | gust knots | rain 1hr in | rain 24hr in | rain mn in | humidity % | barometer mb |
| 20260505014546 | 78 | 311 | 0.0 | 0.0 | 0.00 | 0.00 | 0.00 | 82 | 1007.0 |
| 20260505014047 | 78 | 313 | 0.0 | 0.9 | 0.00 | 0.00 | 0.00 | 83 | 1007.0 |
| 20260505013546 | 77 | 311 | 0.0 | 0.9 | 0.00 | 0.00 | 0.00 | 83 | 1007.0 |
| 20260505013046 | 77 | 313 | 0.0 | 0.0 | 0.00 | 0.00 | 0.00 | 83 | 1007.0 |
| 20260505012546 | 77 | 313 | 0.0 | 0.0 | 0.00 | 0.00 | 0.00 | 83 | 1007.0 |
| 20260505012046 | 77 | 312 | 0.0 | 0.0 | 0.00 | 0.00 | 0.00 | 83 | 1007.0 |
| 20260505011546 | 77 | 311 | 0.0 | 0.0 | 0.00 | 0.00 | 0.00 | 83 | 1007.0 |
| 20260505011046 | 77 | 312 | 0.0 | 0.9 | 0.00 | 0.00 | 0.00 | 83 | 1007.0 |
| 20260505010546 | 77 | 307 | 0.9 | 1.7 | 0.00 | 0.00 | 0.00 | 83 | 1007.0 |
| 20260505010046 | 77 | 307 | 0.0 | 0.0 | 0.00 | 0.00 | 0.00 | 84 | 1006.0 |
| 20260505005547 | 77 | 307 | 0.0 | 0.0 | 0.00 | 0.00 | 0.00 | 84 | 1007.0 |
| 20260505005046 | 77 | 308 | 0.0 | 0.0 | 0.00 | 0.00 | 0.00 | 84 | 1006.0 |
| 20260505004547 | 77 | 308 | 0.0 | 0.0 | 0.00 | 0.00 | 0.00 | 84 | 1006.0 |
| 20260505004047 | 77 | 308 | 0.0 | 0.9 | 0.00 | 0.00 | 0.00 | 84 | 1006.0 |
| 20260505003550 | 77 | 306 | 0.0 | 0.0 | 0.00 | 0.00 | 0.00 | 84 | 1006.0 |
| 20260505003047 | 77 | 307 | 0.0 | 0.0 | 0.00 | 0.00 | 0.00 | 84 | 1006.0 |
| 20260505002547 | 77 | 306 | 0.0 | 0.0 | 0.00 | 0.00 | 0.00 | 83 | 1006.0 |
| 20260505002047 | 77 | 307 | 0.0 | 0.9 | 0.00 | 0.00 | 0.00 | 83 | 1006.0 |
| 20260505001546 | 78 | 306 | 0.0 | 0.0 | 0.00 | 0.00 | 0.00 | 82 | 1006.0 |
| 20260505001047 | 78 | 306 | 0.0 | 0.0 | 0.00 | 0.00 | 0.00 | 82 | 1006.0 |
| 20260505000547 | 78 | 306 | 0.0 | 0.0 | 0.00 | 0.00 | 0.00 | 82 | 1006.0 |
| 20260505000046 | 78 | 306 | 0.0 | 0.0 | 0.00 | 0.00 | 0.00 | 82 | 1006.0 |
| 20260504235547 | 77 | 305 | 0.0 | 0.0 | 0.00 | 0.00 | 0.00 | 82 | 1006.0 |
| 20260504235047 | 77 | 305 | 0.0 | 0.9 | 0.00 | 0.00 | 0.00 | 82 | 1006.0 |
| 20260504234546 | 77 | 307 | 0.0 | 0.0 | 0.00 | 0.00 | 0.00 | 83 | 1005.0 |
| 20260504234046 | 77 | 307 | 0.0 | 0.0 | 0.00 | 0.00 | 0.00 | 83 | 1005.0 |
| 20260504233546 | 77 | 307 | 0.9 | 0.9 | 0.00 | 0.00 | 0.00 | 83 | 1005.0 |
| 20260504233047 | 77 | 307 | 0.9 | 1.7 | 0.00 | 0.00 | 0.00 | 83 | 1005.0 |
| 20260504232546 | 77 | 308 | 0.0 | 0.9 | 0.00 | 0.00 | 0.00 | 82 | 1005.0 |
| 20260504232047 | 77 | 307 | 0.0 | 0.0 | 0.00 | 0.00 | 0.00 | 82 | 1005.0 |
| 20260504231546 | 77 | 305 | 0.9 | 1.7 | 0.00 | 0.00 | 0.00 | 82 | 1005.0 |
| 20260504231055 | 77 | 305 | 0.9 | 1.7 | 0.00 | 0.00 | 0.00 | 82 | 1005.0 |
| 20260504230546 | 77 | 309 | 0.9 | 0.9 | 0.00 | 0.00 | 0.00 | 81 | 1005.0 |
| 20260504230047 | 77 | 308 | 0.0 | 0.9 | 0.00 | 0.00 | 0.00 | 81 | 1005.0 |
| 20260504225546 | 77 | 304 | 0.0 | 0.0 | 0.00 | 0.00 | 0.00 | 81 | 1005.0 |
| 20260504225048 | 78 | 307 | 0.0 | 0.0 | 0.00 | 0.00 | 0.00 | 81 | 1005.0 |
| 20260504224546 | 78 | 301 | 1.7 | 1.7 | 0.00 | 0.00 | 0.00 | 80 | 1005.0 |
| 20260504224047 | 78 | 304 | 0.0 | 0.9 | 0.00 | 0.00 | 0.00 | 80 | 1005.0 |
| 20260504223546 | 78 | 307 | 0.0 | 0.0 | 0.00 | 0.00 | 0.00 | 81 | 1005.0 |
| 20260504222557 | 78 | 308 | 0.0 | 0.0 | 0.00 | 0.00 | 0.00 | 81 | 1005.0 |
| 20260504222047 | 78 | 305 | 0.0 | 0.9 | 0.00 | 0.00 | 0.00 | 80 | 1005.0 |
| 20260504221547 | 77 | 309 | 0.0 | 0.0 | 0.00 | 0.00 | 0.00 | 80 | 1005.0 |
| 20260504221047 | 77 | 309 | 0.0 | 0.0 | 0.00 | 0.00 | 0.00 | 80 | 1005.0 |
| 20260504220547 | 77 | 308 | 0.0 | 0.0 | 0.00 | 0.00 | 0.00 | 80 | 1005.0 |
| 20260504220048 | 77 | 310 | 0.0 | 0.0 | 0.00 | 0.00 | 0.00 | 81 | 1005.0 |
| 20260504215546 | 77 | 310 | 0.0 | 0.0 | 0.00 | 0.00 | 0.00 | 81 | 1005.0 |
| 20260504215046 | 77 | 309 | 0.0 | 0.0 | 0.00 | 0.00 | 0.00 | 81 | 1005.0 |
| 20260504214546 | 77 | 309 | 0.0 | 0.0 | 0.00 | 0.00 | 0.00 | 81 | 1005.0 |
| 20260504214046 | 77 | 309 | 0.0 | 0.0 | 0.00 | 0.00 | 0.00 | 81 | 1005.0 |
| 20260504213547 | 77 | 309 | 0.0 | 0.0 | 0.00 | 0.00 | 0.00 | 80 | 1005.0 |
| 20260504213048 | 77 | 309 | 0.0 | 0.9 | 0.00 | 0.00 | 0.00 | 80 | 1005.0 |
| 20260504212548 | 77 | 310 | 0.0 | 0.0 | 0.00 | 0.00 | 0.00 | 80 | 1006.0 |
| 20260504212047 | 77 | 310 | 0.0 | 0.0 | 0.00 | 0.00 | 0.00 | 80 | 1006.0 |
| 20260504211548 | 78 | 310 | 0.0 | 0.0 | 0.00 | 0.00 | 0.00 | 80 | 1006.0 |
| 20260504211048 | 78 | 310 | 0.0 | 0.0 | 0.00 | 0.00 | 0.00 | 79 | 1006.0 |
| 20260504210547 | 78 | 310 | 0.0 | 0.0 | 0.00 | 0.00 | 0.00 | 79 | 1006.0 |
| 20260504210049 | 78 | 310 | 0.0 | 0.0 | 0.00 | 0.00 | 0.00 | 79 | 1006.0 |
| 20260504205547 | 78 | 310 | 0.0 | 0.0 | 0.00 | 0.00 | 0.00 | 79 | 1006.0 |
| 20260504205047 | 78 | 311 | 0.0 | 0.0 | 0.00 | 0.00 | 0.00 | 79 | 1006.0 |
| 20260504204546 | 78 | 311 | 0.0 | 0.0 | 0.00 | 0.00 | 0.00 | 79 | 1006.0 |
| 20260504204047 | 78 | 311 | 0.0 | 0.0 | 0.00 | 0.00 | 0.00 | 79 | 1006.0 |
| 20260504203547 | 78 | 311 | 0.0 | 0.0 | 0.00 | 0.00 | 0.00 | 79 | 1007.0 |
| 20260504203047 | 78 | 310 | 0.0 | 0.0 | 0.00 | 0.00 | 0.00 | 79 | 1007.0 |
| 20260504202547 | 78 | 310 | 0.0 | 0.0 | 0.00 | 0.00 | 0.00 | 79 | 1007.0 |
| 20260504202048 | 78 | 308 | 0.0 | 0.0 | 0.00 | 0.00 | 0.00 | 78 | 1007.0 |
| 20260504201546 | 78 | 309 | 0.0 | 0.0 | 0.00 | 0.00 | 0.00 | 78 | 1006.0 |
| 20260504201048 | 78 | 309 | 0.0 | 0.0 | 0.00 | 0.00 | 0.00 | 78 | 1006.0 |
| 20260504200546 | 78 | 309 | 0.0 | 0.0 | 0.00 | 0.00 | 0.00 | 77 | 1006.0 |
| 20260504200048 | 78 | 307 | 0.0 | 0.9 | 0.00 | 0.00 | 0.00 | 77 | 1007.0 |
| 20260504195556 | 78 | 304 | 3.5 | 5.2 | 0.00 | 0.00 | 0.00 | 76 | 1007.0 |
| 20260504195047 | 79 | 310 | 0.9 | 0.9 | 0.00 | 0.00 | 0.00 | 77 | 1007.0 |
| 20260504194547 | 79 | 312 | 0.9 | 0.9 | 0.00 | 0.00 | 0.00 | 77 | 1007.0 |
| 20260504194046 | 79 | 319 | 0.0 | 0.9 | 0.00 | 0.00 | 0.00 | 76 | 1007.0 |
| 20260504193546 | 79 | 307 | 0.0 | 0.9 | 0.00 | 0.00 | 0.00 | 76 | 1007.0 |
| 20260504193046 | 79 | 313 | 0.9 | 0.9 | 0.00 | 0.00 | 0.00 | 76 | 1007.0 |
| 20260504192546 | 79 | 311 | 0.0 | 0.9 | 0.00 | 0.00 | 0.00 | 76 | 1007.0 |
| 20260504192046 | 79 | 309 | 0.9 | 0.9 | 0.00 | 0.00 | 0.00 | 76 | 1007.0 |
| 20260504191546 | 80 | 311 | 0.9 | 0.9 | 0.00 | 0.00 | 0.00 | 76 | 1007.0 |
| 20260504191048 | 80 | 308 | 0.9 | 0.9 | 0.00 | 0.00 | 0.00 | 75 | 1008.0 |
| 20260504190546 | 80 | 310 | 1.7 | 1.7 | 0.00 | 0.00 | 0.00 | 76 | 1008.0 |
| 20260504190048 | 80 | 315 | 0.9 | 0.9 | 0.00 | 0.00 | 0.00 | 75 | 1008.0 |
| 20260504185546 | 80 | 308 | 0.9 | 0.9 | 0.00 | 0.00 | 0.00 | 75 | 1008.0 |
| 20260504185046 | 80 | 306 | 0.9 | 1.7 | 0.00 | 0.00 | 0.00 | 75 | 1008.0 |
| 20260504184546 | 80 | 308 | 0.9 | 0.9 | 0.00 | 0.00 | 0.00 | 76 | 1008.0 |
| 20260504184047 | 80 | 303 | 2.6 | 4.3 | 0.00 | 0.00 | 0.00 | 77 | 1008.0 |
| 20260504183547 | 80 | 307 | 0.9 | 0.9 | 0.00 | 0.00 | 0.00 | 77 | 1008.0 |
| 20260504183047 | 80 | 314 | 1.7 | 4.3 | 0.00 | 0.00 | 0.00 | 76 | 1008.0 |
| 20260504182550 | 80 | 307 | 0.9 | 0.9 | 0.00 | 0.00 | 0.00 | 76 | 1007.0 |
| 20260504182047 | 79 | 308 | 0.9 | 1.7 | 0.00 | 0.00 | 0.00 | 76 | 1007.0 |
| 20260504181546 | 79 | 311 | 0.9 | 1.7 | 0.00 | 0.00 | 0.00 | 76 | 1007.0 |
| 20260504181048 | 79 | 312 | 0.9 | 0.9 | 0.00 | 0.00 | 0.00 | 76 | 1007.0 |
| 20260504180546 | 79 | 314 | 0.0 | 0.9 | 0.00 | 0.00 | 0.00 | 76 | 1007.0 |
| 20260504180048 | 79 | 311 | 1.7 | 2.6 | 0.00 | 0.00 | 0.00 | 76 | 1007.0 |
| 20260504175546 | 80 | 311 | 0.9 | 1.7 | 0.00 | 0.00 | 0.00 | 75 | 1007.0 |
| 20260504175046 | 80 | 310 | 0.9 | 1.7 | 0.00 | 0.00 | 0.00 | 74 | 1007.0 |
| 20260504174548 | 81 | 308 | 2.6 | 4.3 | 0.00 | 0.00 | 0.00 | 72 | 1007.0 |
| 20260504174046 | 82 | 318 | 2.6 | 4.3 | 0.00 | 0.00 | 0.00 | 71 | 1007.0 |
| 20260504173547 | 83 | 243 | 2.6 | 2.6 | 0.00 | 0.00 | 0.00 | 71 | 1007.0 |
| 20260504173046 | 84 | 314 | 2.6 | 2.6 | 0.00 | 0.00 | 0.00 | 72 | 1007.0 |
| 20260504172546 | 84 | 312 | 0.0 | 0.0 | 0.00 | 0.00 | 0.00 | 71 | 1008.0 |
| 20260504172047 | 85 | 323 | 1.7 | 4.3 | 0.00 | 0.00 | 0.00 | 69 | 1008.0 |
| 20260504171546 | 86 | 311 | 1.7 | 2.6 | 0.00 | 0.00 | 0.00 | 71 | 1007.0 |
| 20260504171048 | 86 | 312 | 0.9 | 0.9 | 0.00 | 0.00 | 0.00 | 75 | 1008.0 |
| 20260504170547 | 87 | 308 | 0.9 | 0.9 | 0.00 | 0.00 | 0.00 | 77 | 1007.0 |
| 20260504151047 | 87 | 259 | 2.6 | 4.3 | 0.00 | 0.00 | 0.00 | 78 | 1006.0 |
| 20260504150546 | 88 | 291 | 0.9 | 1.7 | 0.00 | 0.00 | 0.00 | 78 | 1006.0 |
| 20260504141047 | 89 | 307 | 0.9 | 1.7 | 0.00 | 0.00 | 0.00 | 77 | 1005.0 |
| 20260504140548 | 89 | 273 | 0.9 | 1.7 | 0.00 | 0.00 | 0.00 | 76 | 1005.0 |
| 20260504130548 | 91 | 264 | 2.6 | 2.6 | 0.00 | 0.00 | 0.00 | 71 | 1003.0 |
| 20260504110548 | 98 | 310 | 0.0 | 0.0 | 0.00 | 0.00 | 0.00 | 55 | 1003.0 |
| 20260504100547 | 99 | 251 | 0.0 | 0.0 | 0.00 | 0.00 | 0.00 | 54 | 1003.0 |
| 20260504081547 | 100 | 312 | 1.7 | 1.7 | 0.00 | 0.00 | 0.00 | 55 | 1004.0 |
| 20260504081049 | 100 | 268 | 2.6 | 4.3 | 0.00 | 0.00 | 0.00 | 53 | 1005.0 |
| 20260504080546 | 101 | 300 | 0.0 | 0.0 | 0.00 | 0.00 | 0.00 | 52 | 1005.0 |
| 20260504050546 | 95 | 318 | 0.0 | 0.9 | 0.00 | 0.00 | 0.00 | 55 | 1007.0 |
| 20260504045547 | 93 | 315 | 0.0 | 0.0 | 0.00 | 0.00 | 0.00 | 57 | 1008.0 |
| 20260504045046 | 93 | 312 | 0.0 | 0.0 | 0.00 | 0.00 | 0.00 | 57 | 1008.0 |
| 20260504044547 | 93 | 309 | 0.0 | 0.0 | 0.00 | 0.00 | 0.00 | 56 | 1007.0 |
| 20260504044046 | 92 | 310 | 0.9 | 0.9 | 0.00 | 0.00 | 0.00 | 57 | 1008.0 |
| 20260504043547 | 92 | 302 | 0.9 | 0.9 | 0.00 | 0.00 | 0.00 | 58 | 1007.0 |
| 20260504043047 | 92 | 313 | 0.9 | 1.7 | 0.00 | 0.00 | 0.00 | 58 | 1008.0 |
| 20260504042548 | 91 | 302 | 2.6 | 4.3 | 0.00 | 0.00 | 0.00 | 58 | 1008.0 |
| 20260504042048 | 91 | 310 | 0.0 | 0.0 | 0.00 | 0.00 | 0.00 | 58 | 1008.0 |
| 20260504041547 | 91 | 310 | 0.0 | 0.0 | 0.00 | 0.00 | 0.00 | 58 | 1008.0 |
| 20260504041046 | 91 | 313 | 0.9 | 0.9 | 0.00 | 0.00 | 0.00 | 59 | 1008.0 |
| 20260504040547 | 90 | 306 | 0.9 | 1.7 | 0.00 | 0.00 | 0.00 | 57 | 1008.0 |
| 20260504040047 | 90 | 313 | 0.9 | 1.7 | 0.00 | 0.00 | 0.00 | 61 | 1007.0 |
| 20260504035546 | 90 | 313 | 0.9 | 0.9 | 0.00 | 0.00 | 0.00 | 60 | 1007.0 |
| 20260504035047 | 90 | 311 | 2.6 | 4.3 | 0.00 | 0.00 | 0.00 | 60 | 1007.0 |
| 20260504034547 | 90 | 308 | 1.7 | 2.6 | 0.00 | 0.00 | 0.00 | 60 | 1007.0 |
| 20260504034047 | 90 | 311 | 0.0 | 0.0 | 0.00 | 0.00 | 0.00 | 63 | 1008.0 |
| 20260504033547 | 89 | 313 | 0.9 | 1.7 | 0.00 | 0.00 | 0.00 | 62 | 1007.0 |
| 20260504033046 | 89 | 311 | 1.7 | 2.6 | 0.00 | 0.00 | 0.00 | 63 | 1007.0 |
| 20260504032547 | 88 | 309 | 0.0 | 0.9 | 0.00 | 0.00 | 0.00 | 64 | 1008.0 |
| 20260504032046 | 88 | 313 | 0.9 | 1.7 | 0.00 | 0.00 | 0.00 | 65 | 1007.0 |
| 20260504031547 | 87 | 308 | 1.7 | 2.6 | 0.00 | 0.00 | 0.00 | 65 | 1007.0 |
| 20260504031048 | 87 | 307 | 0.0 | 0.0 | 0.00 | 0.00 | 0.00 | 67 | 1007.0 |
| 20260504030546 | 87 | 311 | 0.0 | 0.9 | 0.00 | 0.00 | 0.00 | 66 | 1007.0 |
| 20260504030046 | 87 | 308 | 0.0 | 0.0 | 0.00 | 0.00 | 0.00 | 66 | 1007.0 |
| 20260504025546 | 88 | 310 | 0.9 | 0.9 | 0.00 | 0.00 | 0.00 | 65 | 1007.0 |
| 20260504025046 | 87 | 311 | 0.0 | 0.0 | 0.00 | 0.00 | 0.00 | 67 | 1007.0 |
| 20260504024547 | 86 | 308 | 1.7 | 2.6 | 0.00 | 0.00 | 0.00 | 66 | 1007.0 |
| 20260504024048 | 87 | 309 | 0.9 | 0.9 | 0.00 | 0.00 | 0.00 | 67 | 1007.0 |
| 20260504023547 | 86 | 313 | 0.0 | 0.0 | 0.00 | 0.00 | 0.00 | 69 | 1007.0 |
| 20260504023046 | 86 | 311 | 0.0 | 0.0 | 0.00 | 0.00 | 0.00 | 70 | 1007.0 |
| 20260504022546 | 85 | 315 | 0.0 | 0.9 | 0.00 | 0.00 | 0.00 | 71 | 1007.0 |
| 20260504022046 | 85 | 311 | 0.9 | 0.9 | 0.00 | 0.00 | 0.00 | 71 | 1007.0 |
| 20260504021546 | 85 | 309 | 0.0 | 0.9 | 0.00 | 0.00 | 0.00 | 71 | 1007.0 |
| 20260504021047 | 85 | 309 | 0.0 | 0.0 | 0.00 | 0.00 | 0.00 | 72 | 1007.0 |
| 20260504020546 | 84 | 309 | 0.0 | 0.0 | 0.00 | 0.00 | 0.00 | 73 | 1007.0 |
| 20260504020046 | 82 | 310 | 0.0 | 0.0 | 0.00 | 0.00 | 0.00 | 75 | 1007.0 |
| 20260504015546 | 82 | 309 | 0.0 | 0.0 | 0.00 | 0.00 | 0.00 | 76 | 1006.0 |
| 20260504015046 | 82 | 309 | 0.0 | 0.0 | 0.00 | 0.00 | 0.00 | 76 | 1006.0 |